{"data":{"norad_id":65824,"epoch":"2026-09-20T11:15:35.648640Z","epoch_age_seconds":108776,"freshness":"FRESH","line1":"1 65824U 25221B   26263.46916260  .00007799  00000+0  24174-3 0  9992","line2":"2 65824  53.1579 261.5894 0001253  87.7828 272.3318 15.34396004 55936","mean_motion":15.34396004,"eccentricity":0.0001253,"inclination_deg":53.1579,"raan_deg":261.5894,"arg_perigee_deg":87.7828,"mean_anomaly_deg":272.3318,"bstar":0.00024174,"rev_number":5593,"period_min":93.848002487368,"perigee_km":461.85795841672,"apogee_km":463.57227595728,"semimajor_km":6840.852117187,"source":"CELESTRAK","updated_at":"2026-09-21T09:00:35.718989Z"}}